Location: Martz Observatory
(42.0083°N, 79.0667°W)
Time: 09:32:06
(UTC-04:00)

Cosmos 1833 Rocket - Pass Details

Date: 26 May 2018
Orbit: 834 x 838 km, 71.0° (Epoch: 17 June)

Event Time Altitude Azimuth Distance (km) Brightness Sun altitude
Rises 04:42:41 0° 341° (NNW) 3,392 6.2 -10.5°
Reaches altitude 10° 04:45:18 10° 350° (N) 2,453 5.5 -10.1°
Maximum altitude 04:50:33 39° 58° (ENE) 1,236 4.3 -9.4°
Drops below altitude 10° 04:55:45 10° 127° (SE) 2,439 5.3 -8.6°
Sets 04:58:21 0° 135° (SE) 3,369 5.9 -8.3°
